TimeEST,TemperatureF,Dew PointF,Humidity,Sea Level PressureIn,VisibilityMPH,Wind Direction,Wind SpeedMPH,Gust SpeedMPH,PrecipitationIn,Events,Conditions,WindDirDegrees,DateUTC
12:53 AM,-13.0,-16.1,86,30.15,10.0,Calm,Calm,-,N/A,,Clear,0,2013-02-17 05:53:00
1:53 AM,-9.0,-13.0,83,30.14,10.0,Calm,Calm,-,N/A,,Partly Cloudy,0,2013-02-17 06:53:00
2:53 AM,-11.0,-14.1,86,30.15,10.0,Calm,Calm,-,N/A,,Clear,0,2013-02-17 07:53:00
3:53 AM,-14.1,-17.0,87,30.15,10.0,Calm,Calm,-,N/A,,Clear,0,2013-02-17 08:53:00
4:53 AM,-14.1,-18.0,82,30.16,10.0,Calm,Calm,-,N/A,,Mostly Cloudy,0,2013-02-17 09:53:00
5:53 AM,-9.0,-13.0,83,30.16,10.0,Calm,Calm,-,N/A,,Overcast,0,2013-02-17 10:53:00
6:53 AM,-5.1,-9.0,83,30.17,10.0,Calm,Calm,-,N/A,,Overcast,0,2013-02-17 11:53:00
7:53 AM,-2.0,-5.1,87,30.17,9.0,WSW,3.5,-,N/A,,Overcast,240,2013-02-17 12:53:00
8:53 AM,1.0,-2.0,87,30.19,10.0,West,3.5,-,N/A,,Overcast,260,2013-02-17 13:53:00
9:53 AM,6.1,5.0,95,30.19,10.0,WSW,3.5,-,N/A,,Overcast,250,2013-02-17 14:53:00
10:53 AM,9.0,7.0,92,30.19,10.0,Calm,Calm,-,N/A,,Overcast,0,2013-02-17 15:53:00
11:53 AM,10.9,7.0,84,30.21,6.0,Calm,Calm,-,0.00,Snow,Light Snow,0,2013-02-17 16:53:00
12:53 PM,12.9,6.1,74,30.20,9.0,West,5.8,-,0.00,,Overcast,260,2013-02-17 17:53:00
1:13 PM,14.0,6.8,73,30.08,10.0,WSW,5.8,-,N/A,,Overcast,250,2013-02-17 18:13:00
1:30 PM,15.8,6.8,68,30.08,10.0,Calm,Calm,-,N/A,,Overcast,0,2013-02-17 18:30:00
1:53 PM,14.0,5.0,67,30.18,10.0,WSW,5.8,-,N/A,,Overcast,250,2013-02-17 18:53:00
2:08 PM,14.0,5.0,67,30.07,10.0,Calm,Calm,-,N/A,,Overcast,0,2013-02-17 19:08:00
2:50 PM,15.8,6.8,68,30.07,10.0,West,5.8,-,N/A,,Overcast,260,2013-02-17 19:50:00
3:53 PM,16.0,8.1,71,30.17,10.0,West,10.4,-,0.00,,Overcast,260,2013-02-17 20:53:00
4:53 PM,16.0,7.0,68,30.17,10.0,WSW,8.1,-,N/A,,Overcast,250,2013-02-17 21:53:00
5:53 PM,15.1,7.0,70,30.17,10.0,WSW,5.8,-,N/A,,Overcast,250,2013-02-17 22:53:00
6:53 PM,14.0,6.1,71,30.17,10.0,SSW,4.6,-,N/A,,Overcast,210,2013-02-17 23:53:00
7:18 PM,14.0,6.8,73,30.06,10.0,South,4.6,-,N/A,,Overcast,190,2013-02-18 00:18:00
7:53 PM,12.0,5.0,73,30.15,10.0,Calm,Calm,-,N/A,,Overcast,0,2013-02-18 00:53:00
8:30 PM,10.4,3.2,73,30.05,10.0,Calm,Calm,-,N/A,,Scattered Clouds,0,2013-02-18 01:30:00
8:53 PM,8.1,3.9,83,30.16,10.0,Calm,Calm,-,N/A,,Clear,0,2013-02-18 01:53:00
9:53 PM,6.1,1.9,83,30.15,10.0,SSE,3.5,-,N/A,,Clear,150,2013-02-18 02:53:00
10:53 PM,8.1,3.9,83,30.14,10.0,South,5.8,-,N/A,,Clear,170,2013-02-18 03:53:00